HB9UQS-13 Weather Reports


time (UTC)temp
C
wind
direction
speed
KPH
gust
KPH
rain 1hr
cm
rain 24hr
cm
rain mn
cm
humidity
%
barometer
mb
20260507190730 11 203 1.6 4.8 0.00 0.00 0.00 74 928.8
20260507183730 11 34 0.0 1.6 0.00 0.00 0.00 74 928.6
20260507180730 12 239 1.6 3.2 0.00 0.00 0.00 70 928.5
20260507173730 12 193 1.6 4.8 0.00 0.00 0.00 65 928.4
20260507170730 13 157 3.2 4.8 0.00 0.00 0.00 62 928.1
20260507163730 13 199 3.2 4.8 0.00 0.00 0.00 62 928.3
20260507160729 14 176 3.2 6.4 0.00 0.00 0.00 56 928.1
20260507153730 15 204 3.2 6.4 0.00 0.00 0.00 57 928.1
20260507150731 15 138 4.8 8.0 0.00 0.00 0.00 55 928.1
20260507143730 13 265 3.2 11.3 0.00 0.00 0.00 61 928.1
20260507140730 15 305 6.4 14.5 0.00 0.00 0.00 55 928.2
20260507133730 14 173 1.6 6.4 0.00 0.00 0.00 57 928.4
20260507130731 13 155 3.2 8.0 0.00 0.00 0.00 61 928.4
20260507123730 13 200 1.6 6.4 0.00 0.00 0.00 64 928.4
20260507120730 12 289 4.8 11.3 0.00 0.00 0.00 68 928.5
20260507113729 13 298 4.8 11.3 0.00 0.00 0.00 63 928.6
20260507110730 13 302 6.4 14.5 0.00 0.00 0.00 66 928.7
20260507103730 12 302 3.2 8.0 0.00 0.00 0.00 65 928.7
20260507100730 11 323 4.8 11.3 0.00 0.00 0.00 72 928.9
20260507093730 11 288 4.8 8.0 0.00 0.00 0.00 77 928.8
20260507090730 11 213 1.6 6.4 0.00 0.00 0.00 83 928.8
20260507083730 9 275 1.6 4.8 0.00 0.00 0.00 85 928.7
20260507080730 9 299 3.2 6.4 0.00 0.00 0.00 90 928.7
20260507073730 8 245 3.2 6.4 0.00 0.00 0.00 91 928.6
20260507070730 8 264 3.2 6.4 0.00 0.00 0.00 91 928.4
20260507063730 8 294 3.2 9.7 0.00 0.00 0.00 91 928.3
20260507060730 7 267 4.8 8.0 0.00 0.00 0.00 91 928.0
20260507053730 7 250 4.8 11.3 0.00 0.00 0.00 91 927.8
20260507050731 7 293 3.2 9.7 0.00 0.00 0.00 92 927.5
20260507043730 7 280 4.8 11.3 0.00 0.00 0.00 91 927.2
20260507040730 7 266 3.2 9.7 0.00 0.00 0.00 92 927.0
20260507033730 7 282 4.8 14.5 0.00 0.00 0.00 91 927.0
20260507030730 7 283 4.8 12.9 0.00 0.00 0.00 89 926.9
20260507023730 7 292 3.2 8.0 0.00 0.00 0.00 94 926.8
20260507020730 7 290 3.2 6.4 0.00 0.00 0.00 94 926.7
20260507013730 7 290 3.2 8.0 0.00 0.00 0.00 92 926.6
20260507010729 7 277 3.2 9.7 0.00 0.00 0.00 93 926.6
20260507003729 7 286 3.2 8.0 0.00 0.00 0.00 93 926.6
20260507000730 7 284 3.2 6.4 0.00 0.00 0.00 92 926.5
20260506233729 6 282 3.2 8.0 0.00 0.00 0.00 92 926.6
20260506230730 6 272 3.2 8.0 0.00 0.00 0.00 92 926.6
20260506223730 7 288 4.8 11.3 0.00 0.00 0.00 90 926.5
20260506220730 7 281 3.2 8.0 0.00 0.00 0.00 89 926.4
20260506213730 7 271 3.2 8.0 0.00 0.00 0.00 90 926.2
20260506210730 7 286 3.2 9.7 0.00 0.00 0.00 89 926.2
20260506203730 7 280 3.2 6.4 0.00 0.00 0.00 90 925.8
20260506200730 7 268 3.2 8.0 0.00 0.00 0.00 89 925.6
20260506193730 7 254 3.2 6.4 0.00 0.00 0.00 87 925.2